AO-07 1 07530U 74089B 18116.55478524 -.00000035 00000-0 60975-4 0 9990 2 07530 101.6823 084.6594 0012541 075.4245 043.0628 12.53632285987895 UO-11 1 14781U 84021B 18116.65405187 .00000064 00000-0 14013-4 0 9992 2 14781 97.6549 155.0521 0007052 247.9889 112.0577 14.82998028836802 LO-19 1 20442U 90005G 18116.81860740 .00000001 00000-0 16429-4 0 9994 2 20442 98.6069 55.6360 0010833 305.7547 54.2629 14.32893445476539 HUBBLE 1 20580U 90037B 18116.34286737 .00000498 00000-0 19556-4 0 9992 2 20580 028.4692 097.8212 0002473 305.3580 201.2386 15.09024424337542 MET-2/21 1 22782U 93055A 18116.55688647 .00000044 00000-0 26254-4 0 9990 2 22782 082.5463 134.9110 0020854 272.0446 248.4834 13.83808338244765 AO-27 1 22825U 93061C 18116.58415915 .00000005 00000-0 19594-4 0 9990 2 22825 098.8584 091.7771 0009183 132.0929 228.1034 14.30028161281920 IO-26 1 22826U 93061D 18116.89273558 -.00000003 00000-0 16717-4 0 9993 2 22826 98.8526 92.1352 0009845 122.1064 238.1075 14.30359386282420 FO-29 1 24278U 96046B 18116.61547974 -.00000030 00000-0 82304-5 0 9994 2 24278 098.5218 322.4672 0349391 244.6708 111.7865 13.53083045071014 NOAA-15 1 25338U 98030A 18116.61420566 .00000044 00000-0 37308-4 0 9991 2 25338 098.7725 133.0042 0010827 023.5387 336.6286 14.25848119037412 GO-32 1 25397U 98043D 18116.30397821 -.00000024 00000-0 86844-5 0 9992 2 25397 098.6462 057.6119 0001809 131.9636 228.1697 14.23644153028120 ISS 1 25544U 98067A 18116.90063980 .00002062 00000-0 38334-4 0 9997 2 25544 51.6421 274.3807 0002753 23.4906 50.8634 15.54167550110549 NO-44 1 26931U 01043C 18116.26730945 -.00000015 00000-0 25931-4 0 9993 2 26931 067.0528 003.3797 0007157 281.3297 078.7000 14.30502200865055 SO-50 1 27607U 02058C 18116.56415473 -.00000016 00000-0 18535-4 0 9993 2 27607 064.5552 247.8263 0059396 340.1055 019.7731 14.75442323825214 CO-55 1 27844U 03031E 18116.66759262 .00000066 00000-0 49706-4 0 9994 2 27844 98.6882 126.0811 0010300 154.4764 205.6924 14.22108064768874 CO-57 1 27848U 03031J 18116.89409765 .00000053 00000-0 44003-4 0 9994 2 27848 98.6969 126.6850 0010008 163.6086 196.5417 14.21712749768771 RS-22 1 27939U 03042A 18116.89022558 .00000123 00000-0 30578-4 0 9998 2 27939 97.9820 257.3731 0011893 315.6236 196.2384 14.66678780779293 NOAA-18 1 28654U 05018A 18116.60431855 .00000016 00000-0 33927-4 0 9993 2 28654 099.1504 150.9937 0013223 272.0859 087.8798 14.12373624666405 CO-58 1 28895U 05043F 18116.86334398 .00000163 00000-0 40168-4 0 9998 2 28895 97.9019 270.4187 0015788 228.2504 131.7350 14.63535584666372 Falconsat-3 1 30776U 07006E 18116.60969139 .00002129 00000-0 64103-4 0 9998 2 30776 035.4355 235.0413 0003733 283.2527 076.7783 15.34315794616398 CO-65 1 32785U 08021C 18116.47417833 .00000248 00000-0 32508-4 0 9996 2 32785 097.5496 131.1158 0012411 203.5808 156.4842 14.88101383541414 AAUSAT2 1 32788U 08021F 18116.59501838 .00000185 00000-0 22305-4 0 9995 2 32788 097.5262 145.2396 0012588 154.5568 205.6275 14.94300080542376 DO-64 1 32789U 08021G 18116.68587570 .00001463 00000-0 10448-3 0 9997 2 32789 97.5173 172.7909 0014253 112.0839 248.1903 15.05947805544034 CO-66 1 32791U 08021J 18116.51278455 .00000331 00000-0 39200-4 0 9992 2 32791 097.5395 136.3931 0013288 183.6345 176.4779 14.90523656541732 RS-30 1 32953U 08025A 18116.85120209 -.00000003 00000-0 -92307-4 0 9991 2 32953 82.5065 44.6012 0018760 325.5923 34.3941 12.43083003450397 PRISM 1 33493U 09002B 18116.67286890 .00001082 00000-0 10146-3 0 9992 2 33493 98.1355 16.7748 0016441 123.7465 236.5346 14.96167549502640 NOAA-19 1 33591U 09005A 18116.56388623 .00000105 00000-0 82228-4 0 9995 2 33591 099.1380 093.5778 0014957 110.2623 250.0157 14.12272850474628 TISAT-1 1 36799U 10035E 18116.29975608 .00000404 00000-0 47192-4 0 9991 2 36799 98.0980 251.1663 0012789 25.4245 334.7599 14.90764381422420 JUGNU 1 37839U 11058B 18116.77889125 .00000323 00000-0 30710-4 0 9992 2 37839 19.9624 348.9796 0018885 40.4833 25.5060 14.12616968338096 SRMSAT 1 37841U 11058D 18116.86205943 .00000307 00000-0 23458-4 0 9998 2 37841 19.9731 36.6166 0011695 286.6259 121.4298 14.10604287337624 AO-71 1 37854U 11061E 18116.76993140 .00000966 00000-0 58469-4 0 9999 2 37854 101.7081 155.4065 0163971 225.8878 132.8746 15.05311181354098 HRBE 1 37855U 11061F 18116.59560025 .00000739 00000-0 46070-4 0 9996 2 37855 101.7211 152.7377 0176886 234.8554 123.5973 15.04287930353428 ALMASAT-1 1 38078U 12006B 18116.86205038 .00021455 38598-5 19611-3 0 9990 2 38078 69.4361 358.4749 0253279 184.5077 302.7387 15.37465233332756 HORYU-2 1 38340U 12025D 18116.60503540 .00000230 00000-0 41877-4 0 9994 2 38340 098.3696 136.5467 0011951 021.9181 338.2536 14.75535451309093 RS-40 1 38735U 12041C 18116.74414976 .00000012 00000-0 11269-4 0 9999 2 38735 82.4721 128.6991 0018105 68.1244 292.1759 12.42576604260648 BEESAT-3 1 39134U 13015E 18116.78482114 .00001456 00000-0 78505-4 0 9997 2 39134 64.8635 293.1700 0018451 218.2841 141.6977 15.19036020277098 BEESAT-2 1 39136U 13015G 18116.80640567 .00001060 00000-0 64662-4 0 9990 2 39136 64.8694 308.4421 0026117 240.5404 119.3116 15.16045608276800 ZACUBE-1 1 39417U 13066B 18116.62604630 .00000219 00000-0 34106-4 0 9994 2 39417 97.5920 148.0044 0058126 325.3697 34.3737 14.80915312239168 TRITON-1 1 39427U 13066M 18116.75890420 .00000258 00000-0 48795-4 0 9995 2 39427 97.6404 116.0961 0115539 64.4878 296.8223 14.67643552237032 GOMX-1 1 39430U 13066Q 18116.80193382 .00000206 00000-0 45850-4 0 9990 2 39430 97.6939 97.3908 0152653 132.3556 229.0690 14.59058393235664 LO-74 1 39440U 13066AA 18116.60695971 .00000246 00000-0 41346-4 0 9990 2 39440 097.6043 134.8991 0080589 004.2374 355.9501 14.75650442237116 AO-73 1 39444U 13066AE 18116.64896455 .00000277 00000-0 40769-4 0 9990 2 39444 97.5930 149.4860 0057152 320.8174 38.8908 14.81687372238024 SPROUT 1 39770U 14029E 18116.77362839 .00000782 00000-0 93894-4 0 9998 2 39770 97.8734 218.2594 0009591 27.2827 332.8899 14.86784215212721 DUCHIFAT-1 1 40021U 14033M 18116.29190181 .00000385 00000-0 45506-4 0 9996 2 40021 097.9171 034.9161 0012981 356.7431 003.3699 14.90267965209221 NANOSATCBR1 1 40024U 14033Q 18116.30738352 .00000427 00000-0 50751-4 0 9994 2 40024 97.9109 33.2766 0012334 358.9264 1.1925 14.89536308209156 EO-79 1 40025U 14033R 18116.32563758 .00000307 00000-0 38902-4 0 9994 2 40025 097.9070 031.8264 0012605 002.7617 357.3667 14.88686035208563 DTUSAT-2 1 40030U 14033W 18116.74762583 .00000265 00000-0 34663-4 0 9996 2 40030 97.9019 31.0086 0011902 356.8330 3.2809 14.88296748209081 EO-80 1 40032U 14033Y 18116.53444815 .00000263 00000-0 34590-4 0 9997 2 40032 097.9026 030.7993 0011865 358.0901 002.0268 14.88233103208520 ANTELSAT 1 40034U 14033AA 18116.88122026 .00000229 00000-0 41672-4 0 9995 2 40034 97.8186 355.3727 0059148 4.8170 355.3595 14.73901250207120 VELOX-1 1 40057U 14034E 18116.76900898 .00000467 00000-0 73197-4 0 9990 2 40057 98.1969 226.9447 0012295 129.1485 231.0817 14.77397623206057 DAURIA DX 1 1 40071U 14037C 18116.67172843 .00000199 00000-0 33079-4 0 9997 2 40071 98.3667 245.7595 0009683 121.9928 238.2226 14.81147624205378 UKUBE-1 1 40074U 14037F 18116.76564036 .00000489 00000-0 66165-4 0 9993 2 40074 98.3796 251.4501 0005831 115.9658 244.2159 14.83771871205673 HODOYOSHI-1 1 40299U 14070B 18116.74964672 .00000905 00000-0 41541-4 0 9991 2 40299 97.3775 199.4306 0014863 73.6699 42.1141 15.22839536192658 CHUBUSAT-1 1 40300U 14070C 18116.73344662 .00001042 00000-0 49081-4 0 9994 2 40300 97.3657 195.5240 0022131 83.3091 36.1179 15.21505790192458 QSAT-EOS 1 40301U 14070D 18116.73692432 .00002311 00000-0 95608-4 0 9992 2 40301 97.3599 196.6152 0028369 74.9052 23.7177 15.24600045192586 FIREBIRD FU3 1 40377U 15003B 18116.61128257 .00002544 00000-0 10704-3 0 9999 2 40377 099.0928 008.1261 0132616 042.5696 318.5721 15.17028542178490 FIREBIRD FU4 1 40378U 15003C 18116.66641845 .00002491 00000-0 10479-3 0 9998 2 40378 99.0930 8.2474 0132837 42.2830 318.8548 15.17038555178511 GRIFEX 1 40379U 15003D 18116.66962246 .00001694 00000-0 77496-4 0 9997 2 40379 99.0963 4.6455 0139755 54.0356 307.3739 15.14196510178302 NO-84 1 40654U 15025D 18116.44936215 .00004805 00000-0 85349-4 0 02828 2 40654 054.9924 269.8725 0159020 338.9978 020.4478 15.39660097047874 NO-83 1 40655U 15025E 18116.42826504 .00015672 00000-0 17676-3 0 03288 2 40655 054.9774 218.8466 0114329 009.7413 350.5713 15.55093064048225 DEORBITSAIL 1 40719U 15032E 18116.74507085 .00000394 00000-0 63935-4 0 9991 2 40719 97.9506 11.0848 0015434 209.8989 150.1340 14.76396184150585 NUDT-PHONESAT 1 40900U 15049B 18116.80059038 .00001984 00000-0 92156-4 0 9991 2 40900 97.4422 125.6510 0012767 201.9985 158.0704 15.21108911144104 XW-2A 1 40903U 15049E 18116.79326331 .00001904 00000-0 49271-4 0 9997 2 40903 97.3895 151.1286 0013341 209.4800 150.5695 15.40298250145892 XW-2C 1 40906U 15049H 18116.80595976 .00000657 00000-0 38523-4 0 9997 2 40906 97.4604 121.2415 0014326 202.1774 157.8841 15.15124932143719 XW-2D 1 40907U 15049J 18116.82949042 .00000694 00000-0 40337-4 0 9994 2 40907 97.4577 120.9676 0013767 199.5417 160.5290 15.15271156143726 LILACSAT-2 1 40908U 15049K 18116.84061958 .00000360 00000-0 23705-4 0 9998 2 40908 97.4689 120.4031 0015374 201.6108 158.4477 15.13471991143606 XW-2F 1 40910U 15049M 18116.81795183 .00001045 00000-0 57050-4 0 9993 2 40910 97.4581 122.1786 0014592 195.5320 164.5467 15.16429813143677 XW-2B 1 40911U 15049N 18116.84512560 .00000692 00000-0 40277-4 0 9993 2 40911 97.4614 121.5013 0013676 200.0231 160.0466 15.15216771143627 DCBB 1 40912U 15049P 18116.69962878 .00001437 00000-0 72529-4 0 9991 2 40912 97.4521 124.7581 0015166 183.5848 289.5223 15.18634670143853 TW-1C 1 40926U 15051B 18116.77547818 .00009030 00000-0 17276-3 0 9995 2 40926 97.1886 159.3717 0012219 104.8091 3.2515 15.48214555145357 TW-1A 1 40928U 15051D 18116.69753741 .00003643 00000-0 97968-4 0 9993 2 40928 97.1906 151.6987 0013267 140.9919 315.0927 15.38439242144867 IO-86 1 40931U 15052B 18114.83313789 .00000693 00000-0 74310-5 0 9995 2 40931 5.9978 170.5980 0013578 336.0693 23.9133 14.76572237139100 LQSat 1 40958U 15057A 18116.74378679 .00000050 00000-0 15415-4 0 9997 2 40958 97.9422 191.0086 0019007 138.1980 222.0680 14.73027351137276 AO-85 1 40967U 15058D 18116.15399940 .00000254 00000-0 45149-4 0 03095 2 40967 064.7791 349.2332 0202162 329.8277 029.1304 14.75697002045974 ATHENOXAT-1 1 41168U 15077C 18116.07016943 .00002779 00000-0 11621-3 0 9996 2 41168 14.9858 41.7296 0012169 35.3746 66.1800 15.12666095130470 ChubuSat-2 1 41338U 16012B 18116.74076910 .00000357 00000-0 21171-4 0 9991 2 41338 31.0035 280.5058 0014052 283.8650 76.0422 14.99962084120102 ChubuSat-3 1 41339U 16012C 18116.76097454 .00000428 00000-0 26661-4 0 9998 2 41339 31.0114 279.0461 0013933 291.2706 68.6440 15.00151688120092 Horyu-4 1 41340U 16012D 18116.58191277 .00000527 00000-0 33574-4 0 9999 2 41340 031.0054 275.3204 0014315 301.4391 058.4845 15.00953703120139 OUFTI-1 1 41458U 16025C 18116.69682361 .00001657 00000-0 90708-4 0 9991 2 41458 98.1414 176.7839 0169340 320.7980 38.1048 15.04518289109696 e-st@r-II 1 41459U 16025D 18116.69473317 .00001493 00000-0 82560-4 0 9996 2 41459 98.1417 176.6444 0170212 321.4518 37.4631 15.04261359109688 AAUSAT4 1 41460U 16025E 18116.72119184 .00001257 00000-0 69634-4 0 9996 2 41460 98.1338 177.0923 0161599 317.6495 41.2340 15.05626605109745 LO-87 1 41557U 16033B 18116.89893621 .00001346 00000-0 51617-4 0 9996 2 41557 97.4369 201.2135 0013206 345.8503 14.2364 15.28217335106325 NuSat2 1 41558U 16033C 18116.77007841 .00001380 00000-0 53120-4 0 9994 2 41558 97.4397 201.1736 0012640 345.5455 14.5421 15.28049438106297 Lapan A3 1 41603U 16040E 18116.71608116 .00000180 00000-0 11633-4 0 9999 2 41603 97.4165 179.1605 0015194 63.1095 50.8837 15.19545158102267 Swayam 1 41607U 16040J 18116.12274959 .00001693 00000-0 76840-4 0 9993 2 41607 097.4176 179.8270 0015368 065.1366 295.1466 15.22071514102181 Pratham 1 41783U 16059A 18116.15537209 .00000070 00000-0 23049-4 0 9992 2 41783 98.1223 178.5425 0032279 258.4566 101.3011 14.62915479 84356 AlSat 1N 1 41789U 16059G 18116.70319341 .00000126 00000-0 33144-4 0 9993 2 41789 98.1228 180.1995 0027030 248.8672 110.9640 14.64145846 84481 ScatSat 1 41790U 16059H 18116.58914010 .00000019 00000-0 16138-4 0 9990 2 41790 098.2654 165.2999 0017044 248.6108 111.3268 14.50868877083707 TY-1 1 41844U 16066D 18116.70033553 .00001733 00000-0 76305-4 0 9992 2 41844 97.4075 124.3528 0014575 212.2948 237.4668 15.23104347 81049 Pegasus-1 1 41846U 16066F 18116.60546190 .00000358 00000-0 64318-4 0 9992 2 41846 098.7586 143.9894 0369079 040.1967 322.5901 14.37309990076490 CAS-2T 1 41847U 16066G 18116.61866442 .00000116 00000-0 27666-4 0 9996 2 41847 098.7550 144.4218 0366970 037.8368 324.8015 14.37882828076917 TO-89 1 41932U 98067KU 18116.58544363 .00028508 00000-0 20620-3 0 9990 2 41932 051.6357 246.1410 0004504 349.7566 010.3340 15.73226484072630 AOBA-V3LOX3 1 41935U 98067KX 18116.58644733 .00037538 00000-0 23850-3 0 9996 2 41935 051.6353 243.0992 0004336 346.2702 013.8179 15.76085134072778 EO-88 1 42017U 17008BX 18116.56643994 .00001667 00000-0 71214-4 0 9992 2 42017 097.4524 181.9237 0006193 186.6427 173.4729 15.24275234066203 HAVELSAT 1 42700U 98067LH 18116.77718952 .00025799 00000-0 22727-3 0 9991 2 42700 51.6356 257.1751 0003560 42.3900 317.7371 15.68556030 53940 SOMP2 1 42701U 98067LJ 18116.80068839 .00025018 00000-0 22726-3 0 9991 2 42701 51.6356 258.0824 0003679 43.1599 316.9685 15.67819779 53924 PHOENIX 1 42706U 98067LP 18116.80799251 .00020501 00000-0 19200-3 0 9990 2 42706 51.6355 258.1366 0001479 337.4526 22.6405 15.67202846 53848 X-CubeSat 1 42707U 98067LQ 18116.77283652 .00026816 00000-0 23243-3 0 9997 2 42707 51.6327 257.0980 0001791 330.1293 29.9602 15.68933283 53842 qbee 1 42708U 98067LR 18116.75801523 .00025419 00000-0 22669-3 0 9998 2 42708 51.6361 257.7864 0001644 333.8032 26.2881 15.68267364 53790 ZA-AeroSat 1 42713U 98067LU 18116.79494610 .00019817 00000-0 19519-3 0 9998 2 42713 51.6347 260.2897 0002472 329.5380 30.5471 15.65967151 53479 LINK 1 42714U 98067LV 18116.81703341 .00047843 00000-0 32409-3 0 9999 2 42714 51.6295 252.8362 0003945 320.3174 39.7536 15.74499922 53684 UPSat 1 42716U 98067LX 18116.74997312 .00036277 00000-0 27619-3 0 9992 2 42716 51.6342 254.7108 0002243 16.8104 343.2968 15.71893532 53671 SpaceCube 1 42717U 98067LY 18116.78286542 .00025393 00000-0 22688-3 0 9991 2 42717 51.6339 257.9438 0002411 35.1520 324.9636 15.68221100 52873 Hoopoe 1 42718U 98067LZ 18116.88969075 .00029090 00000-0 23953-3 0 9996 2 42718 51.6349 255.6602 0002285 22.1412 337.9684 15.70132071 52911 Challenger 1 42721U 98067MA 18116.88737231 .00061616 00000-0 35129-3 0 9995 2 42721 51.6293 249.5434 0005032 355.6928 4.4028 15.78309328 52699 NJUST-1 1 42722U 98067MB 18116.76273470 .00017521 00000-0 17900-3 0 9996 2 42722 51.6358 261.5882 0005251 33.3286 326.8039 15.65133823 52529 UNSW-EC0 1 42723U 98067MC 18116.78185608 .00033280 00000-0 26826-3 0 9991 2 42723 51.6369 256.4636 0004451 19.3164 340.8002 15.70564904 52577 DUTHsat 1 42724U 98067MD 18116.60458669 .00064403 00000-0 38782-3 0 9998 2 42724 051.6342 252.1957 0004205 356.8260 003.2713 15.77068547052557 LO-90 1 42725U 98067ME 18116.87691829 .00022379 00000-0 21008-3 0 9994 2 42725 51.6357 259.3477 0004175 29.1115 331.0113 15.67076650 52464 nSIGHT1 1 42726U 98067MF 18116.78354940 .00007318 00000-0 92325-4 0 9992 2 42726 51.6382 266.2693 0005400 43.2917 316.8500 15.60751818 52379 SNUSAT 1B 1 42727U 98067MG 18116.69406769 .00022147 00000-0 20890-3 0 9994 2 42727 51.6340 260.3348 0006245 355.0638 5.0295 15.66952992 52402 QBITO 1 42728U 98067MH 18116.75011223 .00027268 00000-0 24219-3 0 9997 2 42728 51.6376 258.5412 0002208 16.0294 344.0772 15.68324329 52270 Aalto-2 1 42729U 98067MJ 18116.86436325 .00026548 00000-0 23386-3 0 9998 2 42729 51.6354 257.7604 0002198 14.3728 345.7331 15.68542147 52305 SUSat 1 42730U 98067MK 18116.75063549 .00023388 00000-0 21594-3 0 9990 2 42730 51.6354 259.2427 0002297 19.7450 340.3635 15.67463905 52264 i-INSPIRE II 1 42731U 98067ML 18116.85612367 .00036477 00000-0 28752-3 0 9996 2 42731 51.6340 255.4015 0005909 339.4040 20.6718 15.71046170 52379 PolyITAN-2-SAU 1 42732U 98067MM 18116.77178843 .00026524 00000-0 23144-3 0 9996 2 42732 51.6349 257.8629 0005946 339.6565 20.4194 15.68760397 52333 ExAlta-1 1 42734U 98067MP 18116.79107330 .00037202 00000-0 28875-3 0 9994 2 42734 51.6325 255.7025 0006229 0.4775 359.6228 15.71402418 52311 Aoxiang-1 1 42735U 98067MQ 18116.80116898 .00018302 00000-0 18476-3 0 9992 2 42735 51.6351 261.0764 0005730 30.4934 329.6393 15.65396893 53668 BeEagleSat 1 42736U 98067MR 18116.77228937 .00019352 00000-0 18648-3 0 9994 2 42736 51.6350 260.1266 0005452 27.9888 332.1400 15.66523466 52368 CAS-4B 1 42759U 17034B 18116.84709568 .00000388 00000-0 37512-4 0 9997 2 42759 43.0200 5.1047 0007850 151.3443 299.4450 15.09260904 47691 CAS-4A 1 42761U 17034D 18116.83077692 .00000478 00000-0 42962-4 0 9990 2 42761 43.0206 4.9989 0008392 153.6810 293.7140 15.09337699 47685 UCLSat 1 42765U 17036A 18116.13152769 .00001342 00000-0 62280-4 0 9994 2 42765 97.4058 176.8090 0010214 256.9641 103.0455 15.21711625 46796 NIUSat 1 42766U 17036B 18116.59901374 .00001032 00000-0 50613-4 0 9992 2 42766 097.4059 176.6564 0014586 241.5269 118.4498 15.20278099046692 LituanicaSAT 2 1 42768U 17036D 18116.17098407 .00002113 00000-0 97808-4 0 9990 2 42768 097.4072 176.4786 0014310 245.2194 114.7553 15.21145357046654 Aalto 1 1 42775U 17036L 18116.31336711 .00000902 00000-0 44168-4 0 9992 2 42775 097.4053 176.5649 0012782 242.9300 117.0631 15.20653397046610 URSA MAIOR 1 42776U 17036M 18116.76307157 .00000908 00000-0 44370-4 0 9995 2 42776 97.4059 177.0477 0012625 241.3950 118.6015 15.20725472 46686 Max Valier Sat 1 42778U 17036P 18116.61122669 .00001077 00000-0 51359-4 0 9997 2 42778 097.4083 177.1698 0011143 246.9165 113.0896 15.21193275046669 Pegasus 1 42784U 17036V 18116.16256264 .00001222 00000-0 57284-4 0 9998 2 42784 97.4061 176.7781 0010757 256.9032 103.1004 15.21527582 46601 NUDATSat 1 42787U 17036Y 18116.55972513 .00001845 00000-0 83658-4 0 9991 2 42787 097.4067 177.3231 0010325 254.7070 105.3025 15.22045304046511 SUCHAI 1 1 42788U 17036Z 18116.12860605 .00001495 00000-0 68905-4 0 9992 2 42788 097.4061 176.8218 0010364 256.8399 103.1680 15.21773083046676 SKCUBE 1 42789U 17036AA 18116.58721063 .00001328 00000-0 61610-4 0 9998 2 42789 097.4060 177.2721 0010223 254.9077 105.1028 15.21747420046669 VZLUSAT 1 1 42790U 17036AB 18116.61554568 .00001743 00000-0 79166-4 0 9994 2 42790 097.4064 177.3862 0009885 254.7350 105.2794 15.22070770046676 VENTA 1 1 42791U 17036AC 18116.57059277 .00001203 00000-0 56023-4 0 9995 2 42791 097.4060 177.2916 0009852 255.7238 104.2905 15.21806063046654 Robusta 1B 1 42792U 17036AD 18116.16611022 .00001367 00000-0 63079-4 0 9993 2 42792 097.4059 176.9097 0009771 257.8273 102.1869 15.21884807046615 D-SAT 1 42794U 17036AF 18116.69936825 .00000458 00000-0 45033-4 0 9994 2 42794 97.5968 173.2872 0128721 93.5980 267.9970 14.90836012 46056 BIRD-J 1 42820U 98067MU 18116.62252672 .00020538 00000-0 20457-3 0 9994 2 42820 051.6350 262.8824 0003169 321.0156 039.0610 15.65657061045793 BIRD-G 1 42821U 98067MV 18116.59523311 .00018683 00000-0 18973-3 0 9990 2 42821 051.6351 263.4512 0003080 325.2133 034.8660 15.65240626045769 BIRD-M 1 42822U 98067MW 18116.58385532 .00018981 00000-0 19126-3 0 9993 2 42822 051.6351 263.3781 0003043 325.8773 034.2026 15.65424737045769 BIRD-B 1 42823U 98067MX 18116.77402315 .00020192 00000-0 20239-3 0 9998 2 42823 51.6358 262.4128 0005341 349.9259 10.1629 15.65502674 45771 BIRD-N 1 42824U 98067MY 18116.60073312 .00019124 00000-0 19331-3 0 9996 2 42824 051.6362 263.5186 0005230 349.7924 010.2964 15.65332098045760 TechnoSat 1 42829U 17042E 18116.74945318 .00000279 00000-0 33792-4 0 9993 2 42829 97.6009 21.0286 0014725 16.7111 343.4590 14.90801887 42676 TOMSK-TPU 120 1 42910U 98067MZ 18116.80939066 .00014927 00000-0 16807-3 0 9992 2 42910 51.6349 265.6201 0005958 14.4354 345.6810 15.62782933 39348 TANYUSHA 1 1 42911U 98067NA 18116.82185630 .00017164 00000-0 18667-3 0 9997 2 42911 51.6358 264.9867 0005475 8.3251 351.7834 15.63554282 39339 TANYUSHA 2 1 42912U 98067NB 18116.80725419 .00016295 00000-0 18086-3 0 9990 2 42912 51.6364 265.6073 0004925 20.6402 339.4791 15.63078450 39342 SFERA 2 1 42913U 98067NC 18116.77854906 .00033884 00000-0 29269-3 0 9999 2 42913 51.6337 260.8967 0003477 9.5650 350.5412 15.68883016 39367 TNS 0-2 1 42914U 98067ND 18116.78383805 .00014733 00000-0 16743-3 0 9991 2 42914 51.6362 266.2334 0004923 15.3012 344.8131 15.62560019 39327 QIKCOM-1 1 42983U 98067NF 18116.83048197 .00003159 00000-0 51628-4 0 9997 2 42983 51.6392 273.3284 0004262 12.7219 347.3879 15.55906511 28222 AO-91 1 43017U 17073E 18116.76309757 .00000811 00000-0 68367-4 0 9998 2 43017 97.7052 50.0470 0261565 79.0712 283.9808 14.77992559 23511 EcAMSat 1 43019U 98067NG 18116.80172034 .00005148 00000-0 77930-4 0 9997 2 43019 51.6393 273.1363 0004867 345.0079 15.0768 15.56544852110547 PICSAT 1 43132U 18004X 18116.58490404 .00001332 00000-0 60566-4 0 9993 2 43132 097.5386 179.1162 0008363 280.5866 079.4428 15.22498346015863 AO-92 1 43137U 18004AC 18116.64188155 .00001078 00000-0 49502-4 0 9996 2 43137 97.5382 179.1910 0007914 282.9875 77.0477 15.22594812 15865 TianYi 2 1 43155U 18008A 18116.76019503 .00001328 00000-0 84338-4 0 9997 2 43155 97.5266 192.1031 0016861 325.7746 149.7831 15.10474195 14722 TianYi 6 1 43158U 18008D 18116.74721978 .00001444 00000-0 93558-4 0 9997 2 43158 97.5275 191.9761 0012855 320.3700 154.1150 15.09644988 14699 S-Net G 1 43186U 18014G 18116.73487644 .00000025 00000-0 73228-5 0 9990 2 43186 97.7278 25.8632 0010402 330.4226 29.6405 14.96424269 12621 S-Net H 1 43187U 18014H 18116.73482967 .00000014 00000-0 63994-5 0 9991 2 43187 97.7276 25.8614 0010409 330.3549 29.7081 14.96425065 12620 S-Net J 1 43188U 18014J 18116.80164861 .00000030 00000-0 78130-5 0 9996 2 43188 97.7279 25.9299 0010401 330.2520 29.8109 14.96426024 12633 S-Net K 1 43189U 18014K 18116.73484176 .00000024 00000-0 72177-5 0 9991 2 43189 97.7276 25.8608 0010404 330.3895 29.6736 14.96424815 11171 FMN 1 1 43192U 18015A 18116.77990962 .00002609 00000-0 11495-3 0 9990 2 43192 97.3475 246.7609 0016134 328.9766 31.0511 15.22597213 12692 Shaonian Xing 1 43199U 18015H 18116.59524815 .00001971 00000-0 85189-4 0 9990 2 43199 097.3250 246.4592 0017415 344.0236 016.0449 15.23523866012688 /EX
